Hourly Data Report for October 12, 2015

All times are specified in Local Standard Time (LST). Add 1 hour to adjust for Daylight Saving Time where and when it is observed.

QIKIQTARJUAQ A
NUNAVUT

67°32'48.000" N
64°01'54.000" W
5.50 m
2400577
YVM

Download Data

Hourly Data (October 2015)
Hourly Data Report for October 12, 2015
Temp Definition
°C
Dew Point Temp Definition
°C
Rel Hum Definition
%
Wind Dir Definition
10's deg

Wind Spd Definition
km/h
Visibility Definition
km
Stn Press Definition
kPa
Hmdx Definition


Wind Chill Definition


Weather Definition


TIME
00:00 Legend Double Dagger -0.6 -1.6 93 7 13 16.1 99.67   -5 LegendNANA
01:00 Legend Double Dagger -0.7 -1.6 94 8 13 16.1 99.64   -5 LegendNANA
02:00 Legend Double Dagger 0.4 -2.0 84 1 8 16.1 99.56     LegendNANA
03:00 Legend Double Dagger -2.3 -4.5 85 6 8 16.1 99.50   -5 LegendNANA
04:00 Legend Double Dagger 0.7 -3.4 74 35 17 16.1 99.43     LegendNANA
05:00 Legend Double Dagger 0.7 -3.9 72 35 28 16.1 99.38     LegendNANA
06:00 Legend Double Dagger -0.2 -4.7 72 35 13 16.1 99.37   -4 LegendNANA
07:00 Legend Double Dagger 0.8 -4.0 70 36 22 16.1 99.32     LegendNANA
08:00 Legend Double Dagger 0.6 -3.0 77 36 48 16.1 99.30     LegendNANA
09:00 Legend Double Dagger 0.9 -3.1 75 34 32 16.1 99.34     LegendNANA
10:00 Legend Double Dagger 0.7 -3.1 76 33 32 16.1 99.33     LegendNANA
11:00 Legend Double Dagger 1.0 -4.3 68 33 26 16.1 99.26     LegendNANA
12:00 Legend Double Dagger 1.0 -4.5 67 34 32 16.1 99.29     LegendNANA
13:00 Legend Double Dagger 0.8 -3.8 71 35 30 16.1 99.28     LegendNANA
14:00 Legend Double Dagger 0.7 -3.5 73 33 24 16.1 99.32     LegendNANA
15:00 Legend Double Dagger 0.9 -4.2 69 33 26 16.1 99.29     LegendNANA
16:00 Legend Double Dagger 1.0 -4.5 67 33 22 16.1 99.28     LegendNANA
17:00 Legend Double Dagger 0.7 -3.9 71 34 26 16.1 99.31     LegendNANA
18:00 Legend Double Dagger 0.6 -4.0 71 35 21 16.1 99.31     LegendNANA
19:00 Legend Double Dagger 0.7 -4.5 68 36 17 16.1 99.32     LegendNANA
20:00 Legend Double Dagger 0.4 -3.7 74 36 17 16.1 99.34     LegendNANA
21:00 Legend Double Dagger 0.5 -3.5 75 1 17 16.1 99.32     LegendNANA
22:00 Legend Double Dagger 0.7 -3.7 73 1 26 16.1 99.31     LegendNANA
23:00 Legend Double Dagger 1.0 -3.9 70 36 24 16.1 99.32     LegendNANA

Notes on Data Quality.

Legend

  • E = Estimated
  • M = Missing
  • NA = Not Available
  • ‡ = Partner data that is not subject to review by the National Climate Archives
Date modified: